Weather History for Laramie, WY

Change the Weather History Date:

Sunday, August 25, 2013

  Actual Average Record
Temperature  
Mean Temperature 63 °F 61 °F  
Max Temperature 76 °F 76 °F 90 °F (2011)
Min Temperature 49 °F 45 °F 33 °F (1972)
Degree Days  
Heating Degree Days 2 4  
Month to date heating degree days 49 70  
Since 1 June heating degree days 174 380  
Since 1 July heating degree days 71 139  
Cooling Degree Days 0 0  
Month to date cooling degree days 29 17  
Year to date cooling degree days 123 64  
Since 1 June cooling degree days 123 64  
Growing Degree Days 10 (Base 50)    
Moisture  
Dew Point 51 °F    
Average Humidity 68    
Maximum Humidity 100    
Minimum Humidity 35    
Precipitation  
Precipitation 0.30 in 0.04 in 0.42 in (1955)
Month to date precipitation 0.92 1.02  
Year to date precipitation 6.21 7.94  
Sea Level Pressure  
Sea Level Pressure 30.12 in    
Wind  
Wind Speed 7 mph (South)    
Max Wind Speed 28 mph    
Max Gust Speed 32 mph    
Visibility 7 miles    
Events Rain , Thunderstorm    
T = Trace of Precipitation, MM = Missing Value Source: NWS Daily Summary

Daily Weather History Graph

Daily Weather History Graph

Search for Another Location

Airport:

Trip Planner

Search our weather history database for the weather conditions in past years. The results will help you decide how hot, cold, wet, or windy it might be!

Date:

Astronomy

Aug. 25, 2013 Rise Set
Actual Time 6:22 AM MDT 7:46 PM MDT
Civil Twilight 5:53 AM MDT 8:15 PM MDT
Nautical Twilight 5:18 AM MDT 8:49 PM MDT
Astronomical Twilight 4:41 AM MDT 9:26 PM MDT
Moon 10:15 PM MDT (8/25) 11:30 AM MDT (8/25)
Length of Visible Light 14h 21m
Length of Day
13h 24m
Waning Gibbous, 75% of the Moon is Illuminated
Aug 25
Waning Gibbous
Aug 28
Last Quarter
Sep 5
New
Sep 12
First Quarter
Sep 19
Full

Hourly Weather History & Observations

Time (MDT) Temp. Dew Point Humidity Pressure Visibility Wind Dir Wind Speed Gust Speed Precip Events Conditions
12:53 AM 57.0 °F 48.9 °F 74% 29.95 in 10.0 mi West 9.2 mph - N/A   Clear
1:53 AM 55.0 °F 46.9 °F 74% 29.96 in 10.0 mi Calm Calm - N/A   Clear
2:53 AM 53.1 °F 46.0 °F 77% 29.96 in 10.0 mi ESE 8.1 mph - N/A   Clear
3:53 AM 51.1 °F 45.0 °F 80% 30.00 in 10.0 mi South 9.2 mph - N/A   Clear
4:53 AM 48.9 °F 44.1 °F 83% 29.99 in 10.0 mi SSE 3.5 mph - N/A   Clear
5:53 AM 51.1 °F 45.0 °F 80% 30.01 in 10.0 mi SE 4.6 mph - N/A   Clear
6:53 AM 50.0 °F 44.1 °F 80% 30.04 in 10.0 mi SSE 10.4 mph - N/A   Clear
7:53 AM 57.0 °F 46.9 °F 69% 30.04 in 10.0 mi SSE 5.8 mph - N/A   Clear
8:53 AM 62.1 °F 48.0 °F 60% 30.03 in 10.0 mi Calm Calm - N/A   Clear
9:53 AM 68.0 °F 46.9 °F 47% 30.04 in 10.0 mi West 6.9 mph - N/A   Scattered Clouds
10:53 AM 69.1 °F 46.9 °F 45% 30.03 in 10.0 mi Calm Calm - N/A   Clear
11:53 AM 71.1 °F 46.0 °F 41% 30.03 in 10.0 mi SSW 8.1 mph - N/A   Partly Cloudy
12:53 PM 73.9 °F 45.0 °F 35% 30.01 in 10.0 mi WSW 12.7 mph 18.4 mph N/A   Clear
1:53 PM 73.9 °F 44.1 °F 34% 30.00 in 10.0 mi West 10.4 mph - N/A   Partly Cloudy
2:53 PM 72.0 °F 46.9 °F 41% 30.01 in 10.0 mi ESE 13.8 mph 17.3 mph N/A   Mostly Cloudy
3:06 PM 64.4 °F 55.4 °F 73% 30.33 in 1.5 mi SSE 27.6 mph 32.2 mph 0.04 in Rain Rain
3:17 PM 62.6 °F 57.2 °F 82% 30.33 in 3.0 mi SE 17.3 mph - 0.06 in Rain Light Rain
3:53 PM 63.0 °F 55.0 °F 75% 30.07 in 9.0 mi SE 13.8 mph - 0.09 in Rain Light Rain
4:05 PM 62.6 °F 53.6 °F 72% 30.34 in 1.5 mi SSE 8.1 mph - 0.04 in Rain Heavy Rain
4:16 PM 62.6 °F 53.6 °F 72% 30.32 in 3.0 mi WNW 4.6 mph - 0.06 in Rain Light Rain
4:26 PM 62.6 °F 55.4 °F 77% 30.31 in 4.0 mi North 8.1 mph - 0.06 in Rain , Thunderstorm Light Rain
4:38 PM 62.6 °F 55.4 °F 77% 30.33 in 2.5 mi West 6.9 mph - 0.08 in Rain Light Rain
4:45 PM 60.8 °F 55.4 °F 82% 30.33 in 1.0 mi WNW 4.6 mph - 0.12 in Rain Heavy Rain
4:53 PM 61.0 °F 53.1 °F 75% 30.11 in 2.0 mi South 4.6 mph - 0.13 in Rain Light Rain
5:01 PM 60.8 °F 53.6 °F 77% 30.34 in 4.0 mi ESE 5.8 mph - 0.00 in Rain Light Rain
5:53 PM 60.1 °F 57.0 °F 90% 30.09 in 5.0 mi ENE 8.1 mph - 0.04 in Rain Light Rain
6:53 PM 60.1 °F 55.9 °F 86% 30.12 in 6.0 mi SW 5.8 mph - 0.01 in Rain Light Rain
7:08 PM 60.8 °F 57.2 °F 88% 30.36 in 1.8 mi SSW 8.1 mph - 0.02 in Rain Rain
7:16 PM 59.0 °F 57.2 °F 94% 30.36 in 3.0 mi South 5.8 mph - 0.02 in Rain Light Rain
7:53 PM 59.0 °F 57.0 °F 93% 30.08 in 10.0 mi Calm Calm - 0.03 in   Overcast
8:53 PM 57.0 °F 55.9 °F 96% 30.06 in 10.0 mi SSE 4.6 mph - N/A   Clear
9:53 PM 55.9 °F 55.0 °F 97% 30.05 in 10.0 mi SSE 6.9 mph - N/A   Clear
10:53 PM 55.0 °F 53.1 °F 93% 30.04 in 10.0 mi South 5.8 mph - N/A   Mostly Cloudy
11:53 PM 53.1 °F 52.0 °F 96% 30.03 in 10.0 mi SSE 8.1 mph - N/A   Partly Cloudy